Location: Augustenthal
(51.7167°N, 10.2833°E)
Time: 13:28:36
(UTC+00:00)

Cosmos 990 Rocket - Pass Details

Date: 18 May 2021
Orbit: 747 x 769 km, 74.0° (Epoch: 19 June)

Event Time Altitude Azimuth Distance (km) Brightness Sun altitude
Rises 19:58:17 0° 186° (S) 3,217 6.9 -6.6°
Reaches altitude 10° 20:00:42 10° 181° (S) 2,298 6.1 -6.9°
Maximum altitude 20:05:43 50° 107° (ESE) 972 4.2 -7.4°
Drops below altitude 10° 20:10:48 10° 33° (NNE) 2,322 6.7 -8.0°
Sets 20:13:14 0° 29° (NNE) 3,253 7.5 -8.2°
